Time,TemperatureF,DewpointF,PressureIn,WindDirection,WindDirectionDegrees,WindSpeedMPH,WindSpeedGustMPH,Humidity,HourlyPrecipIn,Conditions,Clouds,dailyrainin,SoftwareType,DateUTC
2013-12-27 00:22:00,21.0,20.0,27.89,WSW,257,0.0,1.0,94,0.00,,,0.00,,2013-12-27 05:22:00,
2013-12-27 00:52:00,23.0,21.0,27.89,WSW,253,1.0,2.0,93,0.00,,,0.00,,2013-12-27 05:52:00,
2013-12-27 01:22:00,22.0,20.0,27.89,West,263,1.0,3.0,93,0.00,,,0.00,,2013-12-27 06:22:00,
2013-12-27 01:43:00,22.0,20.0,27.89,WSW,241,1.0,2.0,92,0.00,,,0.00,,2013-12-27 06:43:00,
2013-12-27 01:52:00,22.0,20.0,27.88,South,169,0.0,1.0,92,0.00,,,0.00,,2013-12-27 06:52:00,
2013-12-27 02:22:00,22.0,20.0,27.90,WNW,285,1.0,1.0,92,0.00,,,0.00,,2013-12-27 07:22:00,
2013-12-27 02:42:00,22.0,20.0,27.91,West,273,1.0,2.0,91,0.00,,,0.00,,2013-12-27 07:42:00,
2013-12-27 02:52:00,21.0,19.0,27.90,North,349,0.0,1.0,91,0.00,,,0.00,,2013-12-27 07:52:00,
2013-12-27 03:22:00,21.0,19.0,27.91,WSW,242,1.0,3.0,93,0.00,,,0.00,,2013-12-27 08:22:00,
2013-12-27 03:42:00,21.0,19.0,27.91,WSW,257,1.0,1.0,92,0.00,,,0.00,,2013-12-27 08:42:00,
2013-12-27 03:52:00,21.0,19.0,27.91,West,279,0.0,2.0,91,0.00,,,0.00,,2013-12-27 08:52:00,
2013-12-27 04:11:00,21.0,19.0,27.91,West,262,0.0,1.0,92,0.00,,,0.00,,2013-12-27 09:11:00,
2013-12-27 04:22:00,21.0,19.0,27.91,WSW,255,0.0,1.0,92,0.00,,,0.00,,2013-12-27 09:22:00,
2013-12-27 04:43:00,21.0,19.0,27.92,WSW,255,0.0,1.0,93,0.00,,,0.00,,2013-12-27 09:43:00,
2013-12-27 04:54:00,22.0,20.0,27.91,West,273,0.0,1.0,91,0.00,,,0.00,,2013-12-27 09:54:00,
2013-12-27 05:23:00,22.0,20.0,27.92,WSW,248,0.0,2.0,91,0.00,,,0.00,,2013-12-27 10:23:00,
2013-12-27 05:53:00,23.0,21.0,27.91,SW,236,0.0,3.0,90,0.00,,,0.00,,2013-12-27 10:53:00,
2013-12-27 06:12:00,22.0,20.0,27.91,SW,236,0.0,1.0,91,0.00,,,0.00,,2013-12-27 11:12:00,
2013-12-27 06:22:00,22.0,20.0,27.91,WSW,250,0.0,1.0,92,0.00,,,0.00,,2013-12-27 11:22:00,
2013-12-27 06:43:00,22.0,20.0,27.91,WSW,250,1.0,2.0,91,0.00,,,0.00,,2013-12-27 11:43:00,
2013-12-27 06:53:00,21.0,19.0,27.91,SW,229,0.0,3.0,91,0.00,,,0.00,,2013-12-27 11:53:00,
2013-12-27 07:12:00,21.0,19.0,27.91,WSW,255,1.0,2.0,92,0.00,,,0.00,,2013-12-27 12:12:00,
2013-12-27 07:22:00,22.0,20.0,27.92,SW,217,2.0,3.0,93,0.00,,,0.00,,2013-12-27 12:22:00,
2013-12-27 07:42:00,22.0,20.0,27.92,SW,235,2.0,2.0,91,0.00,,,0.00,,2013-12-27 12:42:00,
2013-12-27 07:53:00,22.0,20.0,27.92,SW,225,3.0,5.0,92,0.00,,,0.00,,2013-12-27 12:53:00,
2013-12-27 08:12:00,23.0,21.0,27.93,West,260,2.0,5.0,92,0.00,,,0.00,,2013-12-27 13:12:00,
2013-12-27 08:22:00,23.0,21.0,27.93,SW,233,3.0,6.0,90,0.00,,,0.00,,2013-12-27 13:22:00,
2013-12-27 08:42:00,23.0,21.0,27.94,West,262,3.0,5.0,90,0.00,,,0.00,,2013-12-27 13:42:00,
2013-12-27 08:53:00,24.0,21.0,27.93,WSW,257,3.0,6.0,89,0.00,,,0.00,,2013-12-27 13:53:00,
2013-12-27 09:12:00,24.0,21.0,27.93,West,262,3.0,5.0,88,0.00,,,0.00,,2013-12-27 14:12:00,
2013-12-27 09:22:00,24.0,21.0,27.93,WSW,246,3.0,7.0,88,0.00,,,0.00,,2013-12-27 14:22:00,
2013-12-27 09:42:00,25.0,21.0,27.93,SW,233,4.0,8.0,86,0.00,,,0.00,,2013-12-27 14:42:00,
2013-12-27 09:52:00,25.0,21.0,27.94,West,262,2.0,5.0,84,0.00,,,0.00,,2013-12-27 14:52:00,
2013-12-27 10:22:00,26.0,21.0,27.93,SSW,208,3.0,8.0,82,0.00,,,0.00,,2013-12-27 15:22:00,
2013-12-27 10:43:00,27.0,22.0,27.93,WSW,242,5.0,10.0,80,0.00,,,0.00,,2013-12-27 15:43:00,
2013-12-27 10:54:00,27.0,20.0,27.93,WSW,250,4.0,9.0,76,0.00,,,0.00,,2013-12-27 15:54:00,
2013-12-27 11:13:00,29.0,21.0,27.93,WNW,290,3.0,9.0,73,0.00,,,0.00,,2013-12-27 16:13:00,
2013-12-27 11:23:00,29.0,21.0,27.92,WSW,243,3.0,7.0,71,0.00,,,0.00,,2013-12-27 16:23:00,
2013-12-27 11:43:00,29.0,20.0,27.92,WNW,301,5.0,10.0,70,0.00,,,0.00,,2013-12-27 16:43:00,
2013-12-27 11:53:00,30.0,21.0,27.91,WSW,239,6.0,10.0,69,0.00,,,0.00,,2013-12-27 16:53:00,
2013-12-27 12:22:00,29.0,20.0,27.91,West,276,3.0,8.0,69,0.00,,,0.00,,2013-12-27 17:22:00,
2013-12-27 12:43:00,30.0,20.0,27.90,WSW,256,6.0,10.0,66,0.00,,,0.00,,2013-12-27 17:43:00,
2013-12-27 12:52:00,30.0,20.0,27.90,West,279,5.0,13.0,66,0.00,,,0.00,,2013-12-27 17:52:00,
2013-12-27 13:12:00,31.0,20.0,27.89,WSW,239,6.0,11.0,63,0.00,,,0.00,,2013-12-27 18:12:00,
2013-12-27 13:22:00,30.0,19.0,27.89,WSW,243,4.0,9.0,64,0.00,,,0.00,,2013-12-27 18:22:00,
2013-12-27 13:42:00,30.0,19.0,27.88,SW,231,5.0,11.0,64,0.00,,,0.00,,2013-12-27 18:42:00,
2013-12-27 13:53:00,31.0,20.0,27.88,WSW,248,7.0,13.0,62,0.00,,,0.00,,2013-12-27 18:53:00,
2013-12-27 14:12:00,30.0,19.0,27.88,WSW,245,7.0,13.0,63,0.00,,,0.00,,2013-12-27 19:12:00,
2013-12-27 14:22:00,29.0,18.0,27.88,SW,229,7.0,14.0,64,0.00,,,0.00,,2013-12-27 19:22:00,
2013-12-27 14:42:00,29.0,19.0,27.88,WSW,241,5.0,12.0,65,0.00,,,0.00,,2013-12-27 19:42:00,
2013-12-27 14:52:00,29.0,19.0,27.88,West,278,6.0,12.0,66,0.00,,,0.00,,2013-12-27 19:52:00,
2013-12-27 15:11:00,29.0,19.0,27.88,West,260,5.0,9.0,65,0.00,,,0.00,,2013-12-27 20:11:00,
2013-12-27 15:22:00,29.0,19.0,27.89,WSW,245,4.0,10.0,65,0.00,,,0.00,,2013-12-27 20:22:00,
2013-12-27 15:52:00,30.0,20.0,27.89,WSW,252,3.0,11.0,66,0.00,,,0.00,,2013-12-27 20:52:00,
2013-12-27 16:22:00,28.0,18.0,27.89,West,271,4.0,7.0,67,0.00,,,0.00,,2013-12-27 21:22:00,
2013-12-27 16:33:00,28.0,18.0,27.89,West,271,4.0,7.0,67,0.00,,,0.00,,2013-12-27 21:33:00,
2013-12-27 16:43:00,28.0,18.0,27.89,West,271,4.0,7.0,67,0.00,,,0.00,,2013-12-27 21:43:00,
2013-12-27 16:53:00,26.0,18.0,27.90,WSW,255,4.0,8.0,72,0.00,,,0.00,,2013-12-27 21:53:00,
2013-12-27 17:23:00,25.0,18.0,27.89,WSW,248,3.0,6.0,75,0.00,,,0.00,,2013-12-27 22:23:00,
2013-12-27 17:43:00,25.0,18.0,27.89,SW,233,2.0,7.0,75,0.00,,,0.00,,2013-12-27 22:43:00,
2013-12-27 17:53:00,25.0,18.0,27.89,SW,233,2.0,7.0,75,0.00,,,0.00,,2013-12-27 22:53:00,
2013-12-27 18:12:00,25.0,18.0,27.91,WSW,250,1.0,3.0,75,0.00,,,0.00,,2013-12-27 23:12:00,
2013-12-27 18:22:00,25.0,19.0,27.91,WSW,246,2.0,3.0,76,0.00,,,0.00,,2013-12-27 23:22:00,
2013-12-27 18:32:00,25.0,19.0,27.91,WSW,246,2.0,3.0,76,0.00,,,0.00,,2013-12-27 23:32:00,
2013-12-27 18:53:00,24.0,19.0,27.91,WSW,255,2.0,4.0,82,0.00,,,0.00,,2013-12-27 23:53:00,
2013-12-27 19:11:00,23.0,19.0,27.91,SW,217,1.0,3.0,84,0.00,,,0.00,,2013-12-28 00:11:00,
2013-12-27 19:22:00,23.0,19.0,27.92,WSW,240,0.0,3.0,83,0.00,,,0.00,,2013-12-28 00:22:00,
2013-12-27 19:42:00,24.0,19.0,27.92,SE,131,1.0,1.0,82,0.00,,,0.00,,2013-12-28 00:42:00,
2013-12-27 19:52:00,24.0,19.0,27.92,SE,131,0.0,1.0,82,0.00,,,0.00,,2013-12-28 00:52:00,
2013-12-27 20:12:00,25.0,20.0,27.92,SW,219,0.0,1.0,82,0.00,,,0.00,,2013-12-28 01:12:00,
2013-12-27 20:22:00,25.0,20.0,27.93,SW,229,1.0,3.0,82,0.00,,,0.00,,2013-12-28 01:22:00,
2013-12-27 20:42:00,25.0,21.0,27.93,WSW,257,0.0,3.0,83,0.00,,,0.00,,2013-12-28 01:42:00,
2013-12-27 20:52:00,25.0,20.0,27.93,West,271,0.0,0.0,82,0.00,,,0.00,,2013-12-28 01:52:00,
2013-12-27 21:02:00,25.0,20.0,27.93,West,271,0.0,0.0,82,0.00,,,0.00,,2013-12-28 02:02:00,
2013-12-27 21:12:00,25.0,20.0,27.93,West,271,0.0,0.0,82,0.00,,,0.00,,2013-12-28 02:12:00,
2013-12-27 21:22:00,26.0,21.0,27.93,WSW,257,0.0,2.0,80,0.00,,,0.00,,2013-12-28 02:22:00,
2013-12-27 21:52:00,27.0,20.0,27.92,North,8,3.0,8.0,76,0.00,,,0.00,,2013-12-28 02:52:00,
2013-12-27 22:02:00,27.0,20.0,27.92,North,8,3.0,8.0,76,0.00,,,0.00,,2013-12-28 03:02:00,
2013-12-27 22:22:00,27.0,20.0,27.91,SW,226,0.0,5.0,76,0.00,,,0.00,,2013-12-28 03:22:00,
2013-12-27 22:33:00,27.0,20.0,27.91,SW,226,0.0,5.0,76,0.00,,,0.00,,2013-12-28 03:33:00,
2013-12-27 22:43:00,27.0,20.0,27.91,SW,226,0.0,5.0,76,0.00,,,0.00,,2013-12-28 03:43:00,
2013-12-27 22:53:00,27.0,20.0,27.91,SW,233,1.0,4.0,75,0.00,,,0.00,,2013-12-28 03:53:00,
2013-12-27 23:23:00,26.0,20.0,27.90,WSW,246,2.0,4.0,77,0.00,,,0.00,,2013-12-28 04:23:00,
2013-12-27 23:42:00,26.0,20.0,27.90,ENE,64,2.0,3.0,79,0.00,,,0.00,,2013-12-28 04:42:00,
2013-12-27 23:53:00,25.0,19.0,27.90,SSW,198,0.0,1.0,78,0.00,,,0.00,,2013-12-28 04:53:00,